This demonstration page uses our WeatherBlox Daily Observations layout. Learn more.

Left ArrowRight Arrow

31.31129, -92.44514

Hourly Observations for December 20, 2019

Temp ( °F °C ) Dew Point ( °F °C ) Humidity (%) Winds ( mph kmh ) Pressure ( in mb ) Visibility ( mi km ) Precip ( " mm )
12:53 am 00:53 Mostly Clear N/A N/A N/A undefined N/A N/A N/A 0.00 0.00
1:53 am 01:53 undefined N/A N/A N/A undefined N/A N/A N/A 0.00 0.00
2:53 am 02:53 undefined N/A N/A N/A undefined N/A N/A N/A 0.00 0.00
3:53 am 03:53 Mostly Clear N/A N/A N/A undefined N/A N/A N/A 0.00 0.00
4:53 am 04:53 Clear 30 -1.1 28 -2.2 92 92 Calm 30.38 1029 10 16 0.00 0.00
5:53 am 05:53 Clear 30 -1.1 28 -2.2 92 92 Calm 30.40 1030 10 16 0.00 0.00
6:53 am 06:53 Clear 30 -1.1 30 -1.1 100 100 Calm 30.42 1030 10 16 0.00 0.00
7:53 am 07:53 Sunny 30 -1.1 28 -2.2 92 92 Calm 30.42 1030 10 16 0.00 0.00
8:53 am 08:53 Sunny 30 -1.1 28 -2.2 92 92 Calm 30.42 1030 10 16 0.00 0.00
9:53 am 09:53 Sunny 30 -1.1 28 -2.2 92 92 Calm 30.43 1030 10 16 0.00 0.00
10:53 am 10:53 Sunny 46 7.8 36 2.2 68 68 Calm 30.40 1030 10 16 0.00 0.00
11:53 am 11:53 Sunny 52 11.1 34 1.1 50 50 Calm 30.36 1028 10 16 0.00 0.00
12:53 pm 12:53 Sunny 52 11.1 30 -1.1 43 43 VRB 5 7 30.31 1026 10 16 0.00 0.00
1:53 pm 13:53 Sunny 55 12.8 32 0 42 42 VRB 6 9 30.30 1026 10 16 0.00 0.00
2:53 pm 14:53 Sunny 55 12.8 32 0 42 42 VRB 6 9 30.29 1026 10 16 0.00 0.00
3:53 pm 15:53 Sunny 53 11.7 32 0 45 45 ENE 5 7 30.30 1026 10 16 0.00 0.00
4:53 pm 16:53 Sunny 51 10.6 32 0 48 48 NE 6 9 30.33 1027 10 16 0.00 0.00
5:53 pm 17:53 Clear 50 10 32 0 50 50 Calm 30.33 1027 10 16 0.00 0.00
6:53 pm 18:53 Clear 48 8.9 35 1.7 61 61 NNE 3 6 30.35 1028 10 16 0.00 0.00
7:53 pm 19:53 Mostly Cloudy 49 9.4 34 1.1 56 56 Calm 30.34 1027 10 16 0.00 0.00
8:53 pm 20:53 Mostly Cloudy 48 8.9 35 1.7 61 61 NNE 3 6 30.35 1028 10 16 0.00 0.00
9:53 pm 21:53 Clear 46 7.8 39 3.9 77 77 NW 5 7 30.36 1028 10 16 0.00 0.00
10:53 pm 22:53 Mostly Clear 46 7.8 40 4.4 79 79 Calm 30.36 1028 10 16 0.00 0.00
11:53 pm 23:53 Clear 45 7.2 39 3.9 80 80 WNW 7 11 30.35 1028 10 16 0.00 0.00

Powered by AerisWeather